Showing default

EUTE 5W B, 44624

Orbit data source: Space-Track

EUTE 5W B, 44624 is a payload satellite owned by EutelsatSA (FR) in GEO that was launched on Wed, 09 Oct 2019 UTC via a PROTON-M/BRIZ-M launch vehicle from the Tyuratam Missile And Space Complex (TTMTR). Payload-class satellites include a variety of spacecraft equipped with specific instruments for various scientific and technological missions. These include communications satellites like Starlink; space stations such as the ISS; scientific satellites like the Hubble; Earth observation satellites from companies like Planet Labs, Umbra, and HawkEye 360; GPS; miniature CubeSats for education and research; and military/defense satellites.

Not visible in the next 10 days
Identifier
44624, 2019-067A
Orbit
GEO
Country
Flag of UnknownUnknown / EUTE
Related business
Manufacturer
NGIS SSG
Mission
Partially operational Commercial Communications
Bus & Motor
GEOSTAR-2, IHI BT-4?
Mass
2,864 kg wet, ~2,200 kg dry
Launch date (UTC)
2019-10-09 (6 years ago)
Launch vehicle
PROTON-M/BRIZ-M
Launch site
Tyuratam Missile And Space Complex (TTMTR)
Object type
Payload
Rocket body
Debris
Shape & HBR
Box + 2 Pan, Unknown HBR
Radar Cross Section
28.221 m², Large (>1 m²)

Expand to show TLE details & history
Last TLE update: 20 hours ago

TLE from 20 hours ago
0 EUTE 5W B
1 44624U 19067A   25261.20114394 -.00000063  00000-0  00000-0 0  9993
2 44624   0.0768 328.6199 0003110 215.8087 240.3479  1.00271730 21707
Epoch: 2025-09-18T04:49Z
TLE epoch observation values (Epoch: 2025-09-18T04:49:38.836Z)
Latitude
0.05136°
Longitude
-5.03065°
Altitude
35,792.583 km
Speed
3.074 km/s
True Right ascension
04h 18m 59s
True Declination
0° 03' 05"
Sunlit
Object was in daylight at epoch
Visualization orbit readout
Latitude
Unknown
Longitude
Unknown
Altitude
Unknown
Speed
Unknown
Apparent Right ascension
Unknown
Apparent Declination
Unknown
Sunlit
N/A
Visualization observer readout
Local Sidereal Time
17:40:54
Azimuth
Unknown
Elevation
Unknown
Doppler factor
Unknown
Orbital elements
Apogee altitude
35,800.794 km
Perigee altitude
35,774.567 km
Semi-major axis
42,165.818 km
Eccentricity
0.00031
Inclination
0.0768°
RAAN
328.6199°
Arg. of periapsis
215.8087°
True anomaly
240.31693°
Mean anomaly
240.3479°
Eccentric anomaly
240.33242°
Mean motion
0.25067 °/min
Orbital period
1,436.15 mins
BSTAR
0
Loading maneuver chart data...
Computing Atmospheric mass density...
Loading historical data...
Loading historical data...
Loading historical data...
Loading historical data...
Loading historical data...
Loading historical data...
Loading historical data...
Other satellites on launch #67 in the year 2019 (2019-10-09 UTC)

Documentation

Showing up to 5 results
|